Retour au catalogue

STARLINK-36371

ActifCommunicationsVLEO
NORAD 67938·PAYLOAD·🇺🇸 United States

Lancé Feb 24, 2026 depuis Vandenberg Space Force Base

Loading…

Prochains Passages (prochaines 24 heures)

TLE

FraisSource: CelesTrak SupGP

Époque: Sep 14, 2026, 21:12 UTC

1 67938C 26037G   26257.88381944  .00018146  00000+0  65729-3 0  2576
2 67938  43.0000 202.3959 0001288 257.0253 112.1903 15.27568314    15

Suivez STARLINK-36371 en temps réel avec AllMySat

Download on the App Store